Voltar ao catálogo

STARLINK-33816

AtivoComunicaçõesVLEO
NORAD 63677·PAYLOAD·🇺🇸 United States

Lançado Apr 28, 2025 de Cape Canaveral Space Force Station

Loading…

Próximas Passagens (próximas 24 horas)

TLE

AtualizadoSource: CelesTrak SupGP

Época: Sep 15, 2026, 03:08 UTC

1 63677C 25085P   26258.13104167 -.00023517  00000+0 -85198-3 0  2586
2 63677  43.0015  41.1947 0001527 271.2750 346.7459 15.27582636    13

Acompanhe STARLINK-33816 em tempo real com AllMySat

Download on the App Store